Regional Weather Roundup
Issued by NWS

Home | Current Version | Previous Version | Graphics & Text | Print | Product List | Glossary On
Versions: 1 2 3 4 5 6 7 8 9 10 11 12 13 14 15 16 17 18 19 20 21 22 23 24 25 26 27 28 29 30 31 32 33 34 35 36 37 38 39 40 41 42 43 44 45 46 47 48 49 50
000
ASUS43 KFSD 241010
RWRSD

WEATHER ROUNDUP FOR SOUTH DAKOTA
NATIONAL WEATHER SERVICE SIOUX FALLS SD
500 AM CDT WED AUG 24 2016

NOTE: "FAIR" INDICATES FEW OR NO CLOUDS BELOW 12,000 FEET WITH NO
SIGNIFICANT WEATHER AND/OR OBSTRUCTIONS TO VISIBILITY.


SDZ001>005-009-010-012>017-241100-
NORTHWEST AND NORTH CENTRAL SOUTH DAKOTA

CITY           SKY/WX    TMP DP  RH WIND       PRES   REMARKS
BUFFALO          N/A     56  46  69 W16       30.03S
FAITH            N/A     54  42  64 NW12      30.07R
MOBRIDGE       PTCLDY    58  44  60 NW3       29.97S
$$

SDZ012>016-024>037-041>051-057-063-072>074-241100-
SOUTHWEST AND SOUTH CENTRAL SOUTH DAKOTA

CITY           SKY/WX    TMP DP  RH WIND       PRES   REMARKS
RAPID CTY ARPT PTCLDY    61  38  42 N14       30.12R
PIERRE         CLEAR     54  43  66 W12       29.99R
CUSTER         CLOUDY    48  26  42 CALM      30.20S
ELLSWORTH AFB  CLOUDY    62  39  43 NW17      30.11R
PHILIP         CLEAR     50  42  74 NW6       30.06S
PINE RIDGE     PTCLDY    43  40  89 NE5       30.12S
WINNER         FAIR      57  43  59 SW7       30.04R
$$

SDZ004>011-016>023-039-040-241100-
NORTHEAST SOUTH DAKOTA

CITY           SKY/WX    TMP DP  RH WIND       PRES   REMARKS
ABERDEEN       CLEAR     53  47  79 W5        29.94R
WATERTOWN      CLEAR     59  53  80 NW6       29.91R
BROOKINGS      CLEAR     61  56  83 N6        29.90
SISSETON         N/A     56  50  80 NW6       29.87R
$$

SDZ017-020-022-023-036>040-048>070-241100-
SOUTHEAST SOUTH DAKOTA

CITY           SKY/WX    TMP DP  RH WIND       PRES   REMARKS
SIOUX FALLS    CLEAR     67  58  72 N12       29.89R
HURON          CLEAR     53  47  79 W6        29.94R
CHAMBERLAIN    CLEAR     55  49  82 W3        30.00S
MITCHELL       CLEAR     56  49  77 W6        29.97R
YANKTON        CLEAR     61  54  77 NW8       29.92R
$$

ABBREVIATIONS USED IN REMARKS
   TC - TEMPERATURE IN CELSIUS
  WCI - WIND CHILL INDEX
   HX - HEAT INDEX
  VSB - VISIBILITY




USA.gov is the U.S. government's official web portal to all federal, state and local government web resources and services.